Weather History for Easton, MD

Change the Weather History Date:

Wednesday, November 6, 2013

  Actual Average Record
Temperature  
Mean Temperature 60 °F -  
Max Temperature 69 °F 59 °F 78 °F (1948)
Min Temperature 51 °F 39 °F 22 °F (1967)
Degree Days  
Heating Degree Days 6    
Growing Degree Days 10 (Base 50)    
Moisture  
Dew Point 51 °F    
Average Humidity 79    
Maximum Humidity 93    
Minimum Humidity 52    
Precipitation  
Precipitation 0.00 in - - ()
Sea Level Pressure  
Sea Level Pressure 30.36 in    
Wind  
Wind Speed 3 mph (South)    
Max Wind Speed 12 mph    
Max Gust Speed 16 mph    
Visibility 10 miles    
Events      
Averages and records for this station are not official NWS values.
T = Trace of Precipitation, MM = Missing Value Source: NWS Daily Summary

Daily Weather History Graph

Daily Weather History Graph

Search for Another Location

Airport:

Trip Planner

Search our weather history database for the weather conditions in past years. The results will help you decide how hot, cold, wet, or windy it might be!

Date:

Astronomy

Nov. 06, 2013 Rise Set
Actual Time 6:37 AM EST 4:58 PM EST
Civil Twilight 6:09 AM EST 5:26 PM EST
Nautical Twilight 5:37 AM EST 5:57 PM EST
Astronomical Twilight 5:06 AM EST 6:29 PM EST
Moon 9:48 AM EST (11/6) 8:01 PM EST (11/6)
Length of Visible Light 11h 17m
Length of Day
10h 21m
Waxing Crescent, 13% of the Moon is Illuminated
Nov 6
Waxing Crescent
Nov 10
First Quarter
Nov 17
Full
Nov 25
Last Quarter
Dec 2
New

Hourly Weather History & Observations

Time (EST) Temp. Dew Point Humidity Pressure Visibility Wind Dir Wind Speed Gust Speed Precip Events Conditions
12:13 AM 51.8 °F 49.5 °F 92% 30.51 in 10.0 mi Calm Calm - N/A   Overcast
12:33 AM 51.8 °F 49.1 °F 90% 30.51 in 10.0 mi Calm Calm - N/A   Overcast
12:53 AM 51.8 °F 49.5 °F 92% 30.51 in 10.0 mi Calm Calm - N/A   Overcast
1:13 AM 51.8 °F 49.5 °F 92% 30.50 in 10.0 mi Calm Calm - N/A   Overcast
1:33 AM 52.0 °F 49.3 °F 90% 30.50 in 10.0 mi Calm Calm - N/A   Overcast
1:53 AM 52.3 °F 48.9 °F 88% 30.49 in 10.0 mi Calm Calm - N/A   Overcast
2:13 AM 52.2 °F 48.9 °F 89% 30.49 in 10.0 mi Calm Calm - N/A   Overcast
2:33 AM 52.7 °F 48.2 °F 85% 30.48 in 10.0 mi Calm Calm - N/A   Overcast
2:54 AM 53.1 °F 47.7 °F 82% 30.47 in 10.0 mi SE 5.8 mph - N/A   Overcast
3:14 AM 53.2 °F 47.7 °F 81% 30.47 in 10.0 mi Calm Calm - N/A   Overcast
3:34 AM 53.2 °F 48.2 °F 83% 30.47 in 10.0 mi Calm Calm - N/A   Overcast
3:54 AM 52.9 °F 48.2 °F 84% 30.46 in 10.0 mi Calm Calm - N/A   Overcast
4:14 AM 52.9 °F 48.0 °F 84% 30.46 in 10.0 mi SSE 3.5 mph - N/A   Overcast
4:34 AM 52.9 °F 47.8 °F 83% 30.45 in 10.0 mi Calm Calm - N/A   Overcast
4:54 AM 53.1 °F 47.7 °F 82% 30.45 in 10.0 mi SSE 5.8 mph - N/A   Overcast
5:14 AM 53.6 °F 47.7 °F 80% 30.45 in 10.0 mi Calm Calm - N/A   Overcast
5:21 AM 53.2 °F 47.7 °F 81% 30.45 in 10.0 mi Calm Calm - N/A   Overcast
5:53 AM 53.6 °F 48.2 °F 82% 30.44 in 10.0 mi Calm Calm - N/A   Overcast
6:50 AM 53.6 °F 48.2 °F 82% 30.43 in 10.0 mi Calm Calm - N/A   Mostly Cloudy
7:53 AM 53.6 °F 48.2 °F 82% 30.43 in 10.0 mi Calm Calm - N/A   Scattered Clouds
8:50 AM 57.2 °F 48.2 °F 72% 30.42 in 10.0 mi Calm Calm - N/A   Partly Cloudy
9:50 AM 62.6 °F 48.2 °F 59% 30.40 in 10.0 mi South 8.1 mph - N/A   Partly Cloudy
10:53 AM 64.4 °F 48.2 °F 56% 30.39 in 10.0 mi South 6.9 mph - N/A   Partly Cloudy
11:53 AM 68.0 °F 50.0 °F 52% 30.36 in 10.0 mi SSW 5.8 mph - N/A   Partly Cloudy
12:53 PM 68.0 °F 50.0 °F 52% 30.33 in 10.0 mi SW 8.1 mph - N/A   Scattered Clouds
1:53 PM 66.2 °F 53.6 °F 64% 30.31 in 10.0 mi WSW 8.1 mph - N/A   Mostly Cloudy
2:49 PM 66.2 °F 53.6 °F 64% 30.29 in 10.0 mi South 11.5 mph - N/A   Mostly Cloudy
3:58 PM 66.2 °F 51.8 °F 60% 30.27 in 10.0 mi South 9.2 mph - N/A   Mostly Cloudy
4:50 PM 64.4 °F 50.0 °F 59% 30.26 in 10.0 mi SSW 5.8 mph - N/A   Mostly Cloudy
5:50 PM 62.6 °F 51.8 °F 68% 30.25 in 10.0 mi SSW 5.8 mph - N/A   Mostly Cloudy
6:50 PM 59.0 °F 51.8 °F 77% 30.24 in 10.0 mi SSW 5.8 mph - N/A   Mostly Cloudy
7:50 PM 62.6 °F 53.6 °F 72% 30.22 in 10.0 mi South 8.1 mph - N/A   Mostly Cloudy
8:50 PM 60.8 °F 53.6 °F 77% 30.20 in 10.0 mi South 8.1 mph - N/A   Mostly Cloudy
9:36 PM 61.7 °F 57.2 °F 85% 30.19 in 10.0 mi South 8.1 mph - N/A   Overcast
9:56 PM 61.2 °F 57.6 °F 88% 30.18 in 10.0 mi Calm Calm - N/A   Overcast
10:16 PM 61.0 °F 57.9 °F 90% 30.18 in 10.0 mi Calm Calm - N/A   Overcast
10:36 PM 60.8 °F 58.3 °F 91% 30.17 in 10.0 mi South 8.1 mph - N/A   Mostly Cloudy
10:56 PM 61.2 °F 59.0 °F 93% 30.16 in 10.0 mi South 9.2 mph - N/A   Scattered Clouds
11:16 PM 61.7 °F 59.2 °F 91% 30.15 in 10.0 mi South 11.5 mph - N/A   Scattered Clouds
11:36 PM 61.7 °F 59.2 °F 91% 30.14 in 10.0 mi South 11.5 mph 16.1 mph N/A   Scattered Clouds
11:56 PM 61.7 °F 59.0 °F 91% 30.13 in 10.0 mi South 11.5 mph - N/A   Scattered Clouds